Terminal Aerodrome Forecast
Issued by NWS Milwaukee/Sullivan, WI

Home | Current Version | Previous Version | Text Only | Print | Product List | Glossary On
Versions: 1 2 3 4 5 6 7 8 9 10 11 12 13 14 15 16 17 18 19 20 21 22 23 24 25 26 27 28 29 30 31 32 33 34 35 36 37 38 39 40 41 42 43 44 45 46 47 48 49 50
000
FTUS43 KMKX 202325
TAFMKE
TAF
KMKE 202325Z 2100/2206 33008KT P6SM OVC040
     FM210300 35008KT P6SM BKN045
     FM210900 35012KT P6SM BKN035
     FM211600 36013KT P6SM BKN030
     FM211900 01013KT P6SM BKN090
     FM220100 03009KT P6SM SCT150
     FM220500 05007KT P6SM SCT050=

USA.gov is the U.S. government's official web portal to all federal, state and local government web resources and services.